CW7834 Weather Reports


time (UTC)temp
F
wind
direction
speed
knots
gust
knots
rain 1hr
in
rain 24hr
in
rain mn
in
humidity
%
barometer
mb
20260504201736 72 232 2.6 13.0 0.00 0.00 0.00 35
20260504200736 72 259 5.2 12.2 0.00 0.00 0.00 35
20260504195736 70 217 5.2 17.4 0.00 0.00 0.00 36
20260504194736 71 223 7.0 15.6 0.00 0.00 0.00 35
20260504193736 71 222 10.4 18.2 0.00 0.00 0.00 35
20260504192737 71 309 7.0 18.2 0.00 0.00 0.00 36
20260504191736 70 252 4.3 19.1 0.00 0.00 0.00 36
20260504190736 69 249 4.3 13.9 0.00 0.00 0.00 38
20260504185736 69 284 6.1 16.5 0.00 0.00 0.00 38
20260504184736 70 289 4.3 20.0 0.00 0.00 0.00 37
20260504183737 69 217 5.2 22.6 0.00 0.00 0.00 39
20260504182736 70 248 13.0 15.6 0.00 0.00 0.00 36
20260504181736 69 279 6.1 19.1 0.00 0.00 0.00 38
20260504180736 68 219 8.7 19.1 0.00 0.00 0.00 38
20260504175736 68 214 4.3 16.5 0.00 0.00 0.00 37
20260504174736 69 244 10.4 15.6 0.00 0.00 0.00 37
20260504173736 68 325 2.6 17.4 0.00 0.00 0.00 38
20260504172736 68 148 5.2 12.2 0.00 0.00 0.00 38
20260504171736 67 235 5.2 18.2 0.00 0.00 0.00 37
20260504170736 67 273 10.4 18.2 0.00 0.00 0.00 37
20260504150736 62 229 3.5 16.5 0.00 0.00 0.00 40
20260504140736 55 249 8.7 14.8 0.00 0.00 0.00 44
20260504130737 53 264 7.0 14.8 0.00 0.00 0.00 48
20260504081736 37 235 0.0 0.9 0.00 0.00 0.00 78
20260504080735 37 235 0.0 0.9 0.00 0.00 0.00 77
20260504050735 39 192 0.0 0.0 0.00 0.00 0.00 75
20260504045736 39 192 0.0 1.7 0.00 0.00 0.00 76
20260504044735 40 192 0.0 3.5 0.00 0.00 0.00 74
20260504043736 40 175 0.0 2.6 0.00 0.00 0.00 73
20260504042735 40 174 0.9 0.9 0.00 0.00 0.00 73
20260504041735 41 174 0.9 2.6 0.00 0.00 0.00 70
20260504040735 41 175 0.0 2.6 0.00 0.00 0.00 69
20260504035735 42 173 0.9 5.2 0.00 0.00 0.00 68
20260504034735 41 223 0.0 1.7 0.00 0.00 0.00 71
20260504033735 41 224 0.9 2.6 0.00 0.00 0.00 70
20260504032735 41 224 0.0 2.6 0.00 0.00 0.00 68
20260504031735 42 223 0.0 2.6 0.00 0.00 0.00 69
20260504030735 42 228 0.9 1.7 0.00 0.00 0.00 69
20260504025735 42 232 0.9 2.6 0.00 0.00 0.00 65
20260504024735 42 242 0.0 1.7 0.00 0.00 0.00 67
20260504023735 42 243 2.6 3.5 0.00 0.00 0.00 67
20260504022735 42 228 0.0 0.0 0.00 0.00 0.00 67
20260504021735 43 228 0.0 0.0 0.00 0.00 0.00 65
20260504020735 43 228 0.0 0.0 0.00 0.00 0.00 65
20260504015735 43 227 0.0 0.0 0.00 0.00 0.00 65
20260504014735 44 227 0.0 1.7 0.00 0.00 0.00 63
20260504013735 45 228 0.0 0.9 0.00 0.00 0.00 61
20260504012735 45 227 0.0 1.7 0.00 0.00 0.00 60
20260504011735 46 227 0.0 1.7 0.00 0.00 0.00 58
20260504010735 47 228 0.9 1.7 0.00 0.00 0.00 58
20260504005735 47 227 1.7 1.7 0.00 0.00 0.00 55
20260504004735 48 227 1.7 1.7 0.00 0.00 0.00 53
20260504003735 49 228 0.0 0.9 0.00 0.00 0.00 51
20260504002735 51 228 0.0 1.7 0.00 0.00 0.00 49
20260504001735 52 227 0.9 4.3 0.00 0.00 0.00 47
20260504000735 53 219 2.6 4.3 0.00 0.00 0.00 45
20260503235735 53 194 1.7 4.3 0.00 0.00 0.00 43
20260503234735 54 286 0.9 4.3 0.00 0.00 0.00 43
20260503233735 54 275 0.9 5.2 0.00 0.00 0.00 43
20260503232735 55 271 1.7 7.0 0.00 0.00 0.00 41
20260503231736 55 259 7.8 8.7 0.00 0.00 0.00 41
20260503230735 56 311 7.0 13.9 0.00 0.00 0.00 40
20260503225735 57 277 2.6 13.9 0.00 0.00 0.00 39
20260503224735 58 286 2.6 15.6 0.00 0.00 0.00 38
20260503223735 57 329 5.2 11.3 0.00 0.00 0.00 39
20260503222735 58 315 3.5 9.6 0.00 0.00 0.00 38
20260503221735 58 277 2.6 9.6 0.00 0.00 0.00 39
20260503220735 57 284 7.8 13.0 0.00 0.00 0.00 38
20260503215735 58 345 2.6 13.0 0.00 0.00 0.00 37
20260503214735 58 292 0.9 7.8 0.00 0.00 0.00 37
20260503213736 58 313 3.5 13.0 0.00 0.00 0.00 36
20260503212735 58 257 10.4 18.2 0.00 0.00 0.00 38
20260503211735 57 263 14.8 18.2 0.00 0.00 0.00 36
20260503210736 57 343 7.0 16.5 0.00 0.00 0.00 35
20260503205735 57 279 10.4 19.1 0.00 0.00 0.00 35
20260503204735 59 279 11.3 16.5 0.00 0.00 0.00 32
20260503203735 59 286 7.0 13.0 0.00 0.00 0.00 32
20260503202735 59 265 10.4 14.8 0.00 0.00 0.00 33